This demonstration page uses our WeatherBlox Daily Observations layout. Learn more.

Left ArrowRight Arrow

44.8408, -93.29828

Hourly Observations for July 22, 2021

Temp ( °F °C ) Dew Point ( °F °C ) Humidity (%) Winds ( mph kmh ) Pressure ( in mb ) Visibility ( mi km ) Precip ( " mm )
12:53 am 00:53 Mostly Cloudy with Haze 74 23.3 69 20.6 85 85 S 9 15 30.05 1018 6 10 0.00 0.00
1:53 am 01:53 Mostly Cloudy with Mist and Fog 73 22.8 69 20.6 87 87 SSE 6 9 30.05 1018 6 10 0.00 0.00
2:53 am 02:53 Mostly Cloudy with Mist and Fog 72 22.2 69 20.6 91 91 SE 7 11 30.04 1017 6 10 0.00 0.00
3:53 am 03:53 Mostly Cloudy with Mist and Fog 71 21.7 69 20.6 94 94 SSE 8 13 30.04 1017 5 8 0.00 0.00
4:53 am 04:53 Mostly Cloudy with Mist and Fog 71 21.7 68 20 90 90 SE 6 9 30.04 1017 5 8 0.00 0.00
5:53 am 05:53 Mostly Cloudy with Mist and Fog 71 21.7 68 20 90 90 SE 6 9 30.04 1017 5 8 0.00 0.00
6:53 am 06:53 Partly Cloudy 71 21.7 68 20 90 90 SSE 6 9 30.04 1017 7 11 0.00 0.00
7:53 am 07:53 Mostly Cloudy 73 22.8 68 20 84 84 SSE 7 11 30.04 1017 7 11 0.00 0.00
8:53 am 08:53 Mostly Cloudy 76 24.4 68 20 77 77 SE 8 13 30.04 1017 10 16 0.00 0.00
9:53 am 09:53 Mostly Cloudy 80 26.7 66 18.9 62 62 SSW 10 17 30.04 1017 10 16 0.00 0.00
10:53 am 10:53 Mostly Cloudy 83 28.3 65 18.3 55 55 S 12 19 30.02 1017 9 14 0.00 0.00
11:53 am 11:53 Mostly Cloudy 84 28.9 65 18.3 53 53 SW 9 15 30.03 1017 9 14 0.00 0.00
12:53 pm 12:53 Cloudy with Light Rain 81 27.2 66 18.9 61 61 SW 12 19 30.02 1017 9 14 0.00 0.00
1:53 pm 13:53 Cloudy 81 27.2 66 18.9 61 61 S 10 17 30.00 1016 9 14 0.00 0.00
2:47 pm 14:47 Cloudy with Nearby Thunderstorms 81 27 66 19 62 62 S 10 17 29.97 1015 9 14 0.00 0.00
2:53 pm 14:53 Cloudy with Nearby Thunderstorms 81 27.2 67 19.4 62 62 SSW 10 17 30.00 1016 9 14 0.00 0.00
3:09 pm 15:09 Cloudy 81 27.2 66 18.9 61 61 SSW 12 19 29.97 1015 9 14 0.00 0.00
3:43 pm 15:43 Cloudy with Thunderstorms 80 26.7 66 18.9 62 62 SSW 12 19 29.97 1015 9 14 0.00 0.00
3:53 pm 15:53 Cloudy with Thunderstorms 78 25.6 67 19.4 69 69 S 13 20 29.98 1015 6 10 0.00 0.00
4:04 pm 16:04 Cloudy with Rain 77 25 68 20 74 74 S 13 20 29.96 1015 5 8 0.04 1.02
4:53 pm 16:53 Cloudy 81 27.2 69 20.6 67 67 SSE 9 15 29.97 1015 8 13 0.06 1.52
5:53 pm 17:53 Mostly Cloudy 85 29.4 68 20 57 57 S 14 22 29.96 1014 7 11 0.00 0.00
6:53 pm 18:53 Partly Cloudy 85 29.4 67 19.4 55 55 S 17 28 29.94 1014 7 11 0.00 0.00
7:53 pm 19:53 Partly Cloudy 83 28.3 67 19.4 59 59 S 15 24 29.94 1014 7 11 0.00 0.00
8:53 pm 20:53 Mostly Cloudy 82 27.8 67 19.4 60 60 S 13 20 29.96 1015 7 11 0.00 0.00
9:53 pm 21:53 Mostly Cloudy 81 27.2 67 19.4 62 62 S 9 15 29.98 1015 8 13 0.00 0.00
10:53 pm 22:53 Mostly Cloudy 81 27.2 66 18.9 61 61 SSW 9 15 29.99 1016 8 13 0.00 0.00
11:53 pm 23:53 Mostly Clear 78 25.6 67 19.4 69 69 S 6 9 29.98 1015 8 13 0.00 0.00

Powered by AerisWeather